Previsão horária em Barma

Hoje, 5 Agosto, Quinta-feira

Tempo Temperatura Precipitação Vento Pressão Humidade
00:00 +16°C° 0 mm 1 m/s 745 mmHg 72%
01:00 +16°C° 0 mm 1 m/s 745 mmHg 74%
02:00 +15°C° 0 mm 1 m/s 745 mmHg 75%
03:00 +15°C° 0 mm 1 m/s 745 mmHg 77%
04:00 +15°C° 0 mm 1 m/s 745 mmHg 76%
05:00 +15°C° 0 mm 0 m/s 745 mmHg 76%
06:00 +15°C° 0 mm 0 m/s 745 mmHg 75%
07:00 +19°C° 0 mm 1 m/s 745 mmHg 67%
08:00 +21°C° 0 mm 1 m/s 745 mmHg 59%
09:00 +23°C° 0 mm 2 m/s 745 mmHg 51%
10:00 +24°C° 0 mm 2 m/s 745 mmHg 46%
11:00 +26°C° 0 mm 2 m/s 745 mmHg 41%
12:00 +27°C° 0 mm 3 m/s 745 mmHg 36%
13:00 +27°C° 0 mm 3 m/s 745 mmHg 34%
14:00 +28°C° 0 mm 3 m/s 744 mmHg 33%
15:00 +28°C° 0 mm 3 m/s 744 mmHg 31%
16:00 +27°C° 0 mm 3 m/s 744 mmHg 35%
17:00 +26°C° 0 mm 3 m/s 744 mmHg 40%
18:00 +25°C° 0 mm 2 m/s 743 mmHg 44%
19:00 +23°C° 0 mm 2 m/s 743 mmHg 48%
20:00 +21°C° 0 mm 2 m/s 743 mmHg 52%
21:00 +21°C° 0 mm 1 m/s 743 mmHg 56%
22:00 +20°C° 0.1 mm 2 m/s 743 mmHg 59%
23:00 +19°C° 0.1 mm 2 m/s 743 mmHg 61%

Amanhã, 6 Agosto, Sexta-feira

Tempo Temperatura Precipitação Vento Pressão Humidade
00:00 +18°C° 0.1 mm 3 m/s 742 mmHg 64%
01:00 +18°C° 0.1 mm 2 m/s 742 mmHg 64%
02:00 +18°C° 0.1 mm 2 m/s 742 mmHg 65%
03:00 +18°C° 0.1 mm 2 m/s 742 mmHg 65%
04:00 +18°C° 0.2 mm 2 m/s 742 mmHg 70%
05:00 +18°C° 0.2 mm 2 m/s 742 mmHg 74%
06:00 +18°C° 0.2 mm 2 m/s 742 mmHg 78%
07:00 +18°C° 0.1 mm 2 m/s 742 mmHg 78%
08:00 +19°C° 0.1 mm 2 m/s 742 mmHg 78%
09:00 +19°C° 0.1 mm 2 m/s 742 mmHg 78%
10:00 +21°C° 0 mm 3 m/s 742 mmHg 68%
11:00 +24°C° 0 mm 3 m/s 742 mmHg 58%
12:00 +27°C° 0 mm 3 m/s 742 mmHg 47%
13:00 +29°C° 0 mm 3 m/s 741 mmHg 41%
14:00 +31°C° 0 mm 3 m/s 740 mmHg 34%
15:00 +34°C° 0 mm 4 m/s 740 mmHg 27%
16:00 +33°C° 0 mm 3 m/s 739 mmHg 30%
17:00 +33°C° 0 mm 3 m/s 739 mmHg 33%
18:00 +31°C° 0 mm 2 m/s 739 mmHg 36%
19:00 +29°C° 0.3 mm 2 m/s 739 mmHg 46%
20:00 +26°C° 0.3 mm 2 m/s 739 mmHg 57%
21:00 +23°C° 0.3 mm 2 m/s 739 mmHg 68%
22:00 +23°C° 0.5 mm 2 m/s 739 mmHg 71%
23:00 +21°C° 0.5 mm 2 m/s 739 mmHg 73%

Depois de amanhã, 7 Agosto, Sábado

Tempo Temperatura Precipitação Vento Pressão Humidade
00:00 +21°C° 0.5 mm 3 m/s 739 mmHg 75%
01:00 +20°C° 0.2 mm 3 m/s 739 mmHg 78%
02:00 +20°C° 0.2 mm 3 m/s 739 mmHg 80%
03:00 +19°C° 0.2 mm 3 m/s 739 mmHg 82%
04:00 +19°C° 0.7 mm 3 m/s 739 mmHg 83%
05:00 +19°C° 0.7 mm 3 m/s 739 mmHg 84%
06:00 +19°C° 0.7 mm 3 m/s 739 mmHg 85%
07:00 +21°C° 0.2 mm 4 m/s 739 mmHg 75%
08:00 +23°C° 0.2 mm 5 m/s 740 mmHg 65%
09:00 +24°C° 0.2 mm 6 m/s 740 mmHg 56%
10:00 +27°C° 0.1 mm 5 m/s 740 mmHg 53%
11:00 +28°C° 0.1 mm 5 m/s 740 mmHg 50%
12:00 +29°C° 0.1 mm 4 m/s 740 mmHg 47%
13:00 +29°C° 0 mm 4 m/s 740 mmHg 46%
14:00 +29°C° 0 mm 5 m/s 740 mmHg 45%
15:00 +29°C° 0 mm 5 m/s 740 mmHg 44%
16:00 +29°C° 0 mm 4 m/s 740 mmHg 43%
17:00 +29°C° 0 mm 3 m/s 740 mmHg 42%
18:00 +29°C° 0 mm 3 m/s 740 mmHg 41%
19:00 +28°C° 0 mm 2 m/s 740 mmHg 43%
20:00 +26°C° 0 mm 2 m/s 740 mmHg 45%
21:00 +25°C° 0 mm 1 m/s 740 mmHg 47%
22:00 +25°C° 0 mm 1 m/s 740 mmHg 50%
23:00 +24°C° 0 mm 1 m/s 740 mmHg 53%

8 Agosto, Domingo

Tempo Temperatura Precipitação Vento Pressão Humidade
00:00 +24°C° 0 mm 2 m/s 740 mmHg 56%
01:00 +23°C° 0.3 mm 2 m/s 741 mmHg 68%
02:00 +20°C° 0.3 mm 3 m/s 741 mmHg 79%
03:00 +19°C° 0.3 mm 4 m/s 742 mmHg 91%
04:00 +19°C° 0.3 mm 4 m/s 742 mmHg 89%
05:00 +18°C° 0.3 mm 4 m/s 742 mmHg 87%
06:00 +18°C° 0.3 mm 3 m/s 742 mmHg 85%
07:00 +19°C° 0.1 mm 3 m/s 743 mmHg 77%
08:00 +20°C° 0.1 mm 3 m/s 743 mmHg 69%
09:00 +20°C° 0.1 mm 4 m/s 743 mmHg 62%
10:00 +22°C° 0 mm 4 m/s 744 mmHg 56%
11:00 +25°C° 0 mm 3 m/s 744 mmHg 51%
12:00 +27°C° 0 mm 3 m/s 744 mmHg 45%
13:00 +27°C° 0 mm 3 m/s 744 mmHg 43%
14:00 +28°C° 0 mm 3 m/s 744 mmHg 40%
15:00 +29°C° 0 mm 3 m/s 744 mmHg 38%
16:00 +29°C° 0 mm 3 m/s 744 mmHg 39%
17:00 +28°C° 0 mm 3 m/s 744 mmHg 39%
18:00 +28°C° 0 mm 3 m/s 744 mmHg 40%
19:00 +26°C° 0 mm 3 m/s 745 mmHg 45%
20:00 +24°C° 0 mm 2 m/s 745 mmHg 50%
21:00 +21°C° 0 mm 2 m/s 745 mmHg 56%
22:00 +20°C° 0 mm 2 m/s 745 mmHg 58%
23:00 +19°C° 0 mm 2 m/s 745 mmHg 60%

9 Agosto, Segunda-feira

Tempo Temperatura Precipitação Vento Pressão Humidade
00:00 +19°C° 0 mm 2 m/s 745 mmHg 62%
01:00 +19°C° 0 mm 2 m/s 746 mmHg 63%
02:00 +18°C° 0 mm 2 m/s 746 mmHg 65%
03:00 +18°C° 0 mm 2 m/s 746 mmHg 66%
04:00 +19°C° 0 mm 1 m/s 746 mmHg 67%
05:00 +19°C° 0 mm 1 m/s 746 mmHg 67%
06:00 +19°C° 0 mm 1 m/s 746 mmHg 67%
07:00 +21°C° 0 mm 1 m/s 746 mmHg 60%
08:00 +23°C° 0 mm 2 m/s 746 mmHg 54%
09:00 +25°C° 0 mm 2 m/s 746 mmHg 48%
10:00 +26°C° 0 mm 2 m/s 746 mmHg 44%
11:00 +28°C° 0 mm 2 m/s 746 mmHg 41%
12:00 +29°C° 0 mm 2 m/s 746 mmHg 37%
13:00 +30°C° 0 mm 2 m/s 746 mmHg 36%
14:00 +30°C° 0 mm 2 m/s 746 mmHg 34%
15:00 +31°C° 0 mm 2 m/s 746 mmHg 32%
16:00 +30°C° 0 mm 3 m/s 746 mmHg 34%
17:00 +30°C° 0 mm 3 m/s 745 mmHg 36%
18:00 +29°C° 0 mm 3 m/s 745 mmHg 38%
19:00 +27°C° 0 mm 3 m/s 745 mmHg 43%
20:00 +25°C° 0 mm 3 m/s 746 mmHg 49%
21:00 +22°C° 0 mm 3 m/s 746 mmHg 55%
22:00 +22°C° 0 mm 3 m/s 746 mmHg 56%
23:00 +21°C° 0 mm 3 m/s 746 mmHg 57%

10 Agosto, Terça-feira

Tempo Temperatura Precipitação Vento Pressão Humidade
00:00 +21°C° 0 mm 3 m/s 746 mmHg 58%
01:00 +20°C° 0 mm 3 m/s 746 mmHg 60%
02:00 +20°C° 0 mm 3 m/s 746 mmHg 62%
03:00 +19°C° 0 mm 3 m/s 745 mmHg 64%
04:00 +19°C° 0 mm 2 m/s 746 mmHg 64%
05:00 +19°C° 0 mm 2 m/s 746 mmHg 64%
06:00 +19°C° 0 mm 2 m/s 746 mmHg 64%
07:00 +21°C° 0 mm 2 m/s 746 mmHg 59%
08:00 +24°C° 0 mm 3 m/s 746 mmHg 54%
09:00 +25°C° 0 mm 3 m/s 746 mmHg 49%
10:00 +27°C° 0 mm 3 m/s 746 mmHg 45%
11:00 +28°C° 0 mm 3 m/s 745 mmHg 42%
12:00 +29°C° 0 mm 4 m/s 745 mmHg 39%
13:00 +29°C° 0 mm 4 m/s 745 mmHg 37%
14:00 +30°C° 0 mm 4 m/s 745 mmHg 36%
15:00 +30°C° 0 mm 4 m/s 745 mmHg 35%
16:00 +30°C° 0 mm 4 m/s 745 mmHg 37%
17:00 +30°C° 0 mm 4 m/s 744 mmHg 38%
18:00 +29°C° 0 mm 4 m/s 744 mmHg 40%
19:00 +27°C° 0 mm 4 m/s 744 mmHg 45%
20:00 +26°C° 0 mm 4 m/s 744 mmHg 51%
21:00 +24°C° 0 mm 3 m/s 744 mmHg 57%
22:00 +24°C° 0 mm 3 m/s 744 mmHg 58%
23:00 +22°C° 0 mm 3 m/s 744 mmHg 58%
Mostrar mais